Regional Weather Roundup
Issued by NWS

Home | Current Version | Previous Version | Text Only | Print | Product List | Glossary Off
Versions: 1 2 3 4 5 6 7 8 9 10 11 12 13 14 15 16 17 18 19 20 21 22 23 24 25 26 27 28 29 30 31 32 33 34 35 36 37 38 39 40 41 42 43 44 45 46 47 48 49 50

000
ASUS45 KABQ 300610
RWRNM
NEW MEXICO REGIONAL WEATHER ROUNDUP
NATIONAL WEATHER SERVICE ALBUQUERQUE NM
1200 AM MDT TUE AUG 30 2016

NOTE: "FAIR" MEANS FEW OR NO CLOUDS BELOW 12,000 FEET AGL WITH NO
       SIGNIFICANT WEATHER OR OBSTRUCTIONS TO VISION.

      THIS PRODUCT IS RELEASED AS TWO VERSIONS.  ONE VERSION NEAR
      THE TOP OF THE HOUR CONTAINING PRELIMINARY DATA FROM ALBUQUERQUE
      AND OTHER STATIONS.  A FINAL VERSION WITH ADDITIONAL DATA IS
      ISSUED ABOUT 10 MINUTES AFTER THE HOUR.

NMZ501-503-504-510>518-300700-
NORTHWEST PLATEAU/NORTHCENTRAL MOUNTAINS

CITY           SKY/WX    TMP DP  RH WIND       PRES   REMARKS
FARMINGTON     FAIR      62  45  53 E8        30.27S
6HR MIN TEMP:  62; 6HR MAX TEMP:  79;

SANTA FE       FAIR      56  49  77 S8        30.38S
6HR MIN TEMP:  56; 6HR MAX TEMP:  70;

TAOS           FAIR      54  43  66 W6        30.45S
ANGEL FIRE     FAIR      44  42  96 CALM      30.54S

$$
NMZ402-403-502-505>509-300700-
WESTCENTRAL MOUNTAINS/SOUTHWEST MOUNTAINS

CITY           SKY/WX    TMP DP  RH WIND       PRES   REMARKS
GALLUP         FAIR      58  39  49 E7        30.34R
6HR MIN TEMP:  57; 6HR MAX TEMP:  80;

GRANTS         FAIR      60  45  57 SE12      30.38S
SILVER CITY    FAIR      66  54  64 SE9       30.28R

$$
NMZ407-409-411-412-300700-
SOUTHERN DESERTS

CITY           SKY/WX    TMP DP  RH WIND       PRES   REMARKS
DEMING         FAIR      72  56  57 E8        30.21R
6HR MIN TEMP:  72; 6HR MAX TEMP:  86;

LAS CRUCES     FAIR      70  55  58 SE9       30.23S
HOLLOMAN AFB   FAIR      71  57  62 SW12      30.19R
ALAMOGORDO     FAIR      72  55  56 NW3       30.22R
T OR C         CLOUDY    69  53  56 N10       30.26R
6HR MIN TEMP:  69; 6HR MAX TEMP:  84; 6HR PCP:  0.01;


$$
NMZ519>523-300700-
CENTRAL VALLEYS/CENTRAL HIGHLANDS

CITY           SKY/WX    TMP DP  RH WIND       PRES   REMARKS
ALBUQUERQUE    FAIR      64  51  62 E15G22    30.32R
6HR MIN TEMP:  64; 6HR MAX TEMP:  76;

DOUBLE EAGLE   FAIR      61  50  67 SE9       30.35S
MORIARTY ARPT  MOCLDY    55  49  80 CALM      30.41F
6HR MIN TEMP:  55; 6HR MAX TEMP:  60;

CLINES CORNERS CLOUDY    52  48  86 E13       30.44S
6HR MIN TEMP:  52; 6HR MAX TEMP:  58; 6HR PCP:  0.14;

BELEN          FAIR      63  49  61 NW9       30.30S
6HR MIN TEMP:  63; 6HR MAX TEMP:  80;

SOCORRO        FAIR      67  47  48 NE3       30.31R
6HR MIN TEMP:  67; 6HR MAX TEMP:  82;


$$
NMZ524>526-539-540-300700-
SOUTHCENTRAL MOUNTAINS

CITY           SKY/WX    TMP DP  RH WIND       PRES   REMARKS
RUIDOSO          N/A     55  55 100 SE7       30.43R

$$
NMZ527>531-300700-
NORTHEAST HIGHLANDS/NORTHEAST PLAINS

CITY           SKY/WX    TMP DP  RH WIND       PRES   REMARKS
LAS VEGAS      FAIR      52  51  97 N6        30.44F
6HR MIN TEMP:  51; 6HR MAX TEMP:  63; 6HR PCP:  0.29;

RATON          FAIR      54  48  80 CALM      30.41R
6HR MIN TEMP:  54; 6HR MAX TEMP:  60; 6HR PCP:  0.53;

CLAYTON        CLOUDY    62  61  96 CALM      30.35S
6HR MIN TEMP:  62; 6HR MAX TEMP:  67; 6HR PCP: TRACE;


$$
NMZ532>537-300700-
EASTCENTRAL PLAINS

CITY           SKY/WX    TMP DP  RH WIND       PRES   REMARKS
TUCUMCARI      LGT RAIN  65  63  93 E8        30.30R
6HR MIN TEMP:  64; 6HR MAX TEMP:  75; 6HR PCP:  0.01;

CANNON AFB     CLOUDY    64  64 100 NE7       30.29S
6HR MIN TEMP:  64; 6HR MAX TEMP:  66; 6HR PCP:  0.01;

CLOVIS AIRPORT CLOUDY    64  61  88 NE6       30.29S

$$
NMZ028-029-538-300700-
SOUTHEAST PLAINS

CITY           SKY/WX    TMP DP  RH WIND       PRES   REMARKS
ROSWELL        CLOUDY    70  61  73 N3        30.25S
6HR MIN TEMP:  69; 6HR MAX TEMP:  77;

ARTESIA        MOCLDY    68  68 100 NE9       30.24R
CARLSBAD       MOCLDY    71  63  75 NE3       30.20S
6HR MIN TEMP:  71; 6HR MAX TEMP:  77; 6HR PCP: TRACE;

HOBBS          MOCLDY    66  66 100 N13       30.23F


$$




USA.gov is the U.S. government's official web portal to all federal, state and local government web resources and services.